Home > Weather > Hiroshima > Past weeks

Flag for Japan Past Weather in Hiroshima, Japan — Yesterday and Last 2 Weeks

Now
86 °F

Scattered clouds.


Feels Like: 92 °F
Forecast: 75 / 91 °F
Wind: 8 mph from Southeast

Location: Iwakuni Marine Corps Air Station

Current Time: Aug 25, 2016 at 12:03:55 PM

Latest Report: Aug 25, 2016 at 10:55 AM


Visibility: N/A

Pressure: 29.72 "Hg

Humidity: 61%

Dew Point: 71 °F

Location of HiroshimaLocation

Past Weather in Hiroshima — Graph

°F

Hiroshima Temperature Yesterday

Maximum temperature yesterday: 91 °F (at 3:55 PM)
Minimum temperature yesterday: 80 °F (at 5:55 AM)
Average temperature yesterday: 85 °F

High & Low Weather Summary for the Past Weeks

 TemperatureHumidityPressure
High96 °F (Aug 19, 2:55 PM)97% (Aug 17, 7:55 PM)29.84 "Hg (Aug 17, 7:55 PM)
Low77 °F (Aug 11, 5:55 AM)11% (Aug 18, 2:55 PM)29.49 "Hg (Aug 16, 3:55 PM)
Average85 °F73%29.67 "Hg
* Reported Aug 10 10:55 AM — Aug 25 10:55 AM, Hiroshima, Weather by CustomWeather, © 2016

Note: Actual official high and low records may vary slightly from our data, if they occured in-between our weather recording intervals... More about our weather records

Advertising

Hiroshima Weather History for the Previous 24 Hours

Scroll right to see more
 ConditionsComfort  
Time TempWeatherWind HumidityBarometerVisibility
10:55 AM
Thu, Aug 25
86 °FScattered clouds.8 mph61%29.72 "HgN/A
9:55 AM86 °FScattered clouds.6 mph59%29.74 "HgN/A
8:55 AM84 °FBroken clouds.3 mph61%29.74 "HgN/A
7:55 AM83 °FBroken clouds.3 mph63%29.75 "HgN/A
6:55 AM80 °FPartly sunny.3 mph81%29.74 "HgN/A
5:55 AM79 °FBroken clouds.5 mph84%29.72 "HgN/A
4:55 AM80 °FPassing clouds.3 mph81%29.70 "HgN/A
3:55 AM80 °FPassing clouds.5 mph81%29.70 "HgN/A
2:55 AM81 °FPartly cloudy.No wind84%29.70 "HgN/A
1:55 AM81 °FPartly cloudy.5 mph82%29.71 "HgN/A
12:55 AM82 °FPassing clouds.3 mph77%29.72 "HgN/A
11:55 PM
Wed, Aug 24
83 °FPassing clouds.3 mph77%29.72 "HgN/A
10:55 PM83 °FPartly cloudy.No wind79%29.72 "HgN/A
9:55 PM82 °FPartly cloudy.No wind82%29.72 "HgN/A
8:55 PM84 °FPartly cloudy.6 mph80%29.72 "HgN/A
7:55 PM86 °FPartly cloudy.5 mph75%29.70 "HgN/A
6:55 PM85 °FPartly cloudy.6 mph77%29.70 "HgN/A
5:55 PM87 °FPartly sunny.9 mph55%29.68 "HgN/A
4:55 PM91 °FPartly sunny.10 mph60%29.67 "HgN/A
3:55 PM91 °FPartly sunny.6 mph60%29.67 "HgN/A
2:55 PM90 °FBroken clouds.5 mph59%29.67 "HgN/A
1:55 PM90 °FPassing clouds.6 mph59%29.68 "HgN/A
12:55 PM89 °FPartly sunny.7 mph59%29.70 "HgN/A
Weather by CustomWeather, © 2016

See weather overviewHow to use our weather pages